| time (UTC) | temp F | wind direction | speed knots | gust knots | rain 1hr in | rain 24hr in | rain mn in | humidity % | barometer mb |
| 20260503235516 | 59 | 297 | 0.0 | 0.0 | 0.00 | 0.00 | 0.00 | 45 | 1015.4 |
| 20260503235016 | 60 | 297 | 0.0 | 0.0 | 0.00 | 0.00 | 0.00 | 44 | 1015.4 |
| 20260503234516 | 60 | 297 | 0.0 | 0.0 | 0.00 | 0.00 | 0.00 | 43 | 1015.4 |
| 20260503234016 | 60 | 297 | 0.0 | 0.0 | 0.00 | 0.00 | 0.00 | 42 | 1015.4 |
| 20260503233516 | 61 | 297 | 0.0 | 1.7 | 0.00 | 0.00 | 0.00 | 43 | 1015.4 |
| 20260503233016 | 61 | 297 | 0.0 | 2.6 | 0.00 | 0.00 | 0.00 | 40 | 1015.4 |
| 20260503232516 | 62 | 297 | 1.7 | 4.3 | 0.00 | 0.00 | 0.00 | 39 | 1015.4 |
| 20260503232016 | 62 | 297 | 0.9 | 6.1 | 0.00 | 0.00 | 0.00 | 39 | 1015.4 |
| 20260503231516 | 62 | 300 | 3.5 | 6.1 | 0.00 | 0.00 | 0.00 | 38 | 1015.4 |
| 20260503231016 | 62 | 291 | 0.0 | 6.1 | 0.00 | 0.00 | 0.00 | 39 | 1015.3 |
| 20260503230516 | 62 | 262 | 0.0 | 5.2 | 0.00 | 0.00 | 0.00 | 39 | 1015.3 |
| 20260503230016 | 62 | 261 | 0.0 | 7.8 | 0.00 | 0.00 | 0.00 | 39 | 1015.3 |
| 20260503225516 | 62 | 261 | 5.2 | 7.8 | 0.00 | 0.00 | 0.00 | 38 | 1015.3 |
| 20260503224516 | 63 | 294 | 3.5 | 7.8 | 0.00 | 0.00 | 0.00 | 38 | 1015.3 |
| 20260503224016 | 63 | 239 | 0.9 | 9.6 | 0.00 | 0.00 | 0.00 | 39 | 1015.4 |
| 20260503223516 | 63 | 315 | 6.1 | 9.6 | 0.00 | 0.00 | 0.00 | 38 | 1015.4 |
| 20260503223016 | 63 | 348 | 1.7 | 9.6 | 0.00 | 0.00 | 0.00 | 37 | 1015.4 |
| 20260503222515 | 63 | 319 | 2.6 | 7.0 | 0.00 | 0.00 | 0.00 | 37 | 1015.4 |
| 20260503221515 | 63 | 238 | 2.6 | 9.6 | 0.00 | 0.00 | 0.00 | 38 | 1015.4 |
| 20260503221015 | 62 | 259 | 2.6 | 11.3 | 0.00 | 0.00 | 0.00 | 37 | 1015.3 |
| 20260503220046 | 62 | 224 | 5.2 | 11.3 | 0.00 | 0.00 | 0.00 | 38 | 1015.3 |
| 20260503215515 | 62 | 208 | 4.3 | 8.7 | 0.00 | 0.00 | 0.00 | 38 | 1015.3 |
| 20260503215015 | 62 | 286 | 6.1 | 11.3 | 0.00 | 0.00 | 0.00 | 38 | 1015.3 |
| 20260503214515 | 63 | 265 | 8.7 | 11.3 | 0.00 | 0.00 | 0.00 | 37 | 1015.3 |
| 20260503214015 | 63 | 274 | 1.7 | 10.4 | 0.00 | 0.00 | 0.00 | 38 | 1015.3 |
| 20260503213515 | 62 | 259 | 3.5 | 13.0 | 0.00 | 0.00 | 0.00 | 39 | 1015.3 |
| 20260503213015 | 62 | 238 | 8.7 | 13.0 | 0.00 | 0.00 | 0.00 | 39 | 1015.3 |
| 20260503212515 | 62 | 239 | 2.6 | 12.2 | 0.00 | 0.00 | 0.00 | 38 | 1015.3 |
| 20260503212015 | 63 | 193 | 5.2 | 12.2 | 0.00 | 0.00 | 0.00 | 37 | 1015.3 |
| 20260503211515 | 63 | 241 | 2.6 | 8.7 | 0.00 | 0.00 | 0.00 | 38 | 1015.3 |
| 20260503211016 | 63 | 348 | 0.9 | 10.4 | 0.00 | 0.00 | 0.00 | 38 | 1015.2 |
| 20260503210515 | 62 | 268 | 4.3 | 10.4 | 0.00 | 0.00 | 0.00 | 39 | 1015.2 |
| 20260503210015 | 62 | 300 | 5.2 | 8.7 | 0.00 | 0.00 | 0.00 | 37 | 1015.2 |
| 20260503205515 | 62 | 205 | 0.0 | 8.7 | 0.00 | 0.00 | 0.00 | 38 | 1015.2 |
| 20260503204045 | 62 | 271 | 3.5 | 9.6 | 0.00 | 0.00 | 0.00 | 38 | 1015.1 |
| 20260503203545 | 62 | 345 | 3.5 | 9.6 | 0.00 | 0.00 | 0.00 | 38 | 1015.1 |
| 20260503203045 | 62 | 283 | 0.9 | 6.1 | 0.00 | 0.00 | 0.00 | 40 | 1015.1 |
| 20260503202515 | 61 | 305 | 5.2 | 12.2 | 0.00 | 0.00 | 0.00 | 39 | 1015.3 |
| 20260503202044 | 62 | 238 | 0.0 | 12.2 | 0.00 | 0.00 | 0.00 | 37 | 1015.3 |
| 20260503201515 | 62 | 268 | 4.3 | 9.6 | 0.00 | 0.00 | 0.00 | 38 | 1015.3 |
| 20260503201015 | 62 | 297 | 3.5 | 8.7 | 0.00 | 0.00 | 0.00 | 39 | 1015.4 |
| 20260503200515 | 62 | 274 | 0.9 | 7.0 | 0.00 | 0.00 | 0.00 | 39 | 1015.4 |
| 20260503200014 | 61 | 345 | 1.7 | 11.3 | 0.00 | 0.00 | 0.00 | 41 | 1015.4 |
| 20260503195015 | 61 | 323 | 2.6 | 8.7 | 0.00 | 0.00 | 0.00 | 39 | 1015.7 |
| 20260503194514 | 61 | 23 | 0.0 | 8.7 | 0.00 | 0.00 | 0.00 | 43 | 1015.7 |
| 20260503194015 | 61 | 258 | 6.1 | 8.7 | 0.00 | 0.00 | 0.00 | 41 | 1015.9 |
| 20260503193014 | 60 | 307 | 0.0 | 8.7 | 0.00 | 0.00 | 0.00 | 41 | 1015.9 |
| 20260503192515 | 60 | 0 | 5.2 | 11.3 | 0.00 | 0.00 | 0.00 | 42 | 1015.9 |
| 20260503192014 | 60 | 298 | 3.5 | 11.3 | 0.00 | 0.00 | 0.00 | 41 | 1015.9 |
| 20260503191514 | 60 | 271 | 4.3 | 13.0 | 0.00 | 0.00 | 0.00 | 41 | 1015.9 |
| 20260503190514 | 60 | 341 | 8.7 | 13.9 | 0.00 | 0.00 | 0.00 | 41 | 1016.0 |
| 20260503190044 | 60 | 16 | 3.5 | 9.6 | 0.00 | 0.00 | 0.00 | 43 | 1016.0 |
| 20260503185514 | 60 | 14 | 0.0 | 7.8 | 0.00 | 0.00 | 0.00 | 43 | 1016.3 |
| 20260503184514 | 60 | 302 | 4.3 | 11.3 | 0.00 | 0.00 | 0.00 | 44 | 1016.3 |
| 20260503184044 | 59 | 341 | 3.5 | 11.3 | 0.00 | 0.00 | 0.00 | 44 | 1016.4 |
| 20260503183014 | 59 | 354 | 7.8 | 13.9 | 0.00 | 0.00 | 0.00 | 41 | 1016.4 |
| 20260503182514 | 59 | 356 | 8.7 | 11.3 | 0.00 | 0.00 | 0.00 | 43 | 1016.4 |
| 20260503182044 | 59 | 342 | 5.2 | 13.0 | 0.00 | 0.00 | 0.00 | 44 | 1016.4 |
| 20260503181514 | 58 | 358 | 8.7 | 14.8 | 0.00 | 0.00 | 0.00 | 42 | 1016.4 |
| 20260503181014 | 59 | 352 | 3.5 | 14.8 | 0.00 | 0.00 | 0.00 | 41 | 1016.4 |
| 20260503180514 | 58 | 291 | 10.4 | 11.3 | 0.00 | 0.00 | 0.00 | 44 | 1016.4 |
| 20260503180014 | 59 | 271 | 7.0 | 10.4 | 0.00 | 0.00 | 0.00 | 43 | 1016.4 |
| 20260503175514 | 58 | 338 | 2.6 | 10.4 | 0.00 | 0.00 | 0.00 | 44 | 1016.4 |
| 20260503175044 | 58 | 356 | 8.7 | 10.4 | 0.00 | 0.00 | 0.00 | 45 | 1016.4 |
| 20260503174544 | 58 | 340 | 0.9 | 11.3 | 0.00 | 0.00 | 0.00 | 44 | 1016.4 |
| 20260503174014 | 57 | 284 | 4.3 | 15.6 | 0.00 | 0.00 | 0.00 | 46 | 1016.7 |
| 20260503173514 | 57 | 288 | 4.3 | 15.6 | 0.00 | 0.00 | 0.00 | 45 | 1016.7 |
| 20260503173014 | 57 | 5 | 5.2 | 13.0 | 0.00 | 0.00 | 0.00 | 46 | 1016.7 |
| 20260503172514 | 57 | 0 | 7.8 | 13.0 | 0.00 | 0.00 | 0.00 | 44 | 1016.9 |
| 20260503172014 | 57 | 25 | 7.0 | 13.9 | 0.00 | 0.00 | 0.00 | 43 | 1016.9 |
| 20260503171514 | 57 | 347 | 11.3 | 13.9 | 0.00 | 0.00 | 0.00 | 43 | 1016.9 |
| 20260503171013 | 57 | 1 | 5.2 | 13.0 | 0.00 | 0.00 | 0.00 | 46 | 1016.9 |
| 20260503170513 | 56 | 331 | 5.2 | 13.0 | 0.00 | 0.00 | 0.00 | 45 | 1016.9 |
| 20260503150513 | 54 | 285 | 4.3 | 16.5 | 0.00 | 0.01 | 0.00 | 46 | 1017.4 |
| 20260503131012 | 52 | 1 | 4.3 | 14.8 | 0.00 | 0.01 | 0.00 | 56 | 1016.9 |
| 20260503130512 | 52 | 337 | 5.2 | 14.8 | 0.00 | 0.01 | 0.00 | 54 | 1016.9 |
| 20260503110541 | 50 | 261 | 3.5 | 13.0 | 0.00 | 0.01 | 0.00 | 62 | 1015.7 |
| 20260503081040 | 52 | 328 | 2.6 | 6.1 | 0.00 | 0.01 | 0.00 | 68 | 1012.9 |
| 20260503080540 | 53 | 326 | 2.6 | 7.8 | 0.00 | 0.01 | 0.00 | 68 | 1012.9 |
| 20260503072540 | 53 | 313 | 3.5 | 8.7 | 0.00 | 0.01 | 0.00 | 68 | 1012.6 |
| 20260503072039 | 53 | 340 | 2.6 | 7.8 | 0.00 | 0.01 | 0.00 | 68 | 1012.6 |
| 20260503071539 | 53 | 338 | 3.5 | 6.1 | 0.00 | 0.01 | 0.00 | 69 | 1012.6 |
| 20260503071040 | 53 | 331 | 2.6 | 9.6 | 0.00 | 0.01 | 0.00 | 69 | 1012.4 |
| 20260503070539 | 53 | 330 | 2.6 | 9.6 | 0.00 | 0.01 | 0.00 | 68 | 1012.4 |
| 20260503055038 | 49 | 23 | 0.0 | 0.0 | 0.00 | 0.01 | 0.00 | 79 | 1012.1 |
| 20260503054539 | 49 | 23 | 0.0 | 0.0 | 0.00 | 0.01 | 0.00 | 80 | 1012.1 |
| 20260503054039 | 50 | 23 | 0.0 | 0.0 | 0.00 | 0.01 | 0.00 | 80 | 1011.9 |
| 20260503053539 | 50 | 23 | 0.0 | 0.0 | 0.00 | 0.01 | 0.00 | 80 | 1011.9 |
| 20260503053039 | 50 | 23 | 0.0 | 0.0 | 0.00 | 0.01 | 0.00 | 81 | 1011.9 |
| 20260503052538 | 49 | 23 | 0.0 | 0.0 | 0.00 | 0.01 | 0.00 | 80 | 1012.2 |
| 20260503052038 | 49 | 23 | 0.0 | 0.0 | 0.00 | 0.01 | 0.00 | 80 | 1012.2 |
| 20260503051539 | 49 | 23 | 0.0 | 0.0 | 0.00 | 0.01 | 0.00 | 81 | 1012.2 |
| 20260503051038 | 49 | 23 | 0.0 | 0.0 | 0.00 | 0.01 | 0.00 | 80 | 1012.2 |
| 20260503050538 | 50 | 23 | 0.0 | 0.0 | 0.00 | 0.01 | 0.00 | 80 | 1012.2 |
| 20260503050039 | 50 | 23 | 0.0 | 0.0 | 0.00 | 0.01 | 0.00 | 79 | 1012.2 |
| 20260503045538 | 50 | 23 | 0.0 | 0.0 | 0.00 | 0.01 | 0.00 | 78 | 1012.2 |
| 20260503045038 | 50 | 23 | 0.0 | 0.0 | 0.00 | 0.01 | 0.00 | 79 | 1012.2 |
| 20260503044538 | 50 | 23 | 0.0 | 0.0 | 0.00 | 0.01 | 0.00 | 78 | 1012.2 |
| 20260503043039 | 51 | 23 | 0.0 | 0.0 | 0.00 | 0.01 | 0.00 | 77 | 1012.2 |
| 20260503042538 | 51 | 23 | 0.0 | 0.0 | 0.00 | 0.01 | 0.00 | 76 | 1012.2 |
| 20260503042038 | 51 | 23 | 0.0 | 0.0 | 0.00 | 0.01 | 0.00 | 76 | 1012.2 |
| 20260503041538 | 51 | 23 | 0.0 | 0.0 | 0.00 | 0.01 | 0.00 | 75 | 1012.2 |
| 20260503041038 | 52 | 23 | 0.0 | 0.0 | 0.00 | 0.01 | 0.00 | 75 | 1012.3 |
| 20260503040538 | 52 | 23 | 0.0 | 0.0 | 0.00 | 0.01 | 0.00 | 74 | 1012.3 |
| 20260503040038 | 52 | 23 | 0.0 | 0.0 | 0.00 | 0.01 | 0.00 | 74 | 1012.3 |
| 20260503035538 | 52 | 23 | 0.0 | 0.0 | 0.00 | 0.01 | 0.01 | 74 | 1012.2 |
| 20260503034038 | 52 | 23 | 0.0 | 0.0 | 0.00 | 0.01 | 0.01 | 74 | 1012.2 |
| 20260503033538 | 52 | 23 | 0.0 | 0.0 | 0.00 | 0.01 | 0.01 | 73 | 1012.2 |
| 20260503033038 | 52 | 23 | 0.0 | 0.0 | 0.00 | 0.01 | 0.01 | 73 | 1012.2 |
| 20260503032038 | 52 | 23 | 0.0 | 0.0 | 0.00 | 0.01 | 0.01 | 73 | 1012.0 |
| 20260503031538 | 53 | 23 | 0.0 | 0.0 | 0.00 | 0.01 | 0.01 | 73 | 1012.0 |
| 20260503030538 | 53 | 23 | 0.0 | 0.0 | 0.00 | 0.01 | 0.01 | 72 | 1012.2 |
| 20260503030037 | 53 | 23 | 0.0 | 0.0 | 0.00 | 0.01 | 0.01 | 71 | 1012.2 |
| 20260503025538 | 53 | 23 | 0.0 | 0.0 | 0.00 | 0.01 | 0.01 | 71 | 1012.2 |
| 20260503025038 | 53 | 23 | 0.0 | 0.0 | 0.00 | 0.01 | 0.01 | 71 | 1012.2 |
| 20260503024538 | 53 | 25 | 0.0 | 0.0 | 0.00 | 0.01 | 0.01 | 72 | 1012.2 |
| 20260503024038 | 53 | 25 | 0.0 | 0.0 | 0.00 | 0.01 | 0.01 | 72 | 1012.2 |
| 20260503023538 | 53 | 25 | 0.0 | 0.0 | 0.00 | 0.01 | 0.01 | 73 | 1012.2 |
| 20260503023037 | 53 | 25 | 0.0 | 0.0 | 0.00 | 0.01 | 0.01 | 72 | 1012.2 |
| 20260503022538 | 53 | 25 | 0.0 | 0.0 | 0.00 | 0.01 | 0.01 | 70 | 1012.1 |
| 20260503022037 | 54 | 25 | 0.0 | 0.0 | 0.00 | 0.01 | 0.01 | 70 | 1012.1 |
| 20260503021538 | 54 | 25 | 0.0 | 0.0 | 0.00 | 0.01 | 0.01 | 69 | 1012.1 |
| 20260503021037 | 54 | 25 | 0.0 | 0.0 | 0.00 | 0.01 | 0.01 | 70 | 1011.9 |
| 20260503020537 | 54 | 25 | 0.0 | 0.0 | 0.00 | 0.01 | 0.01 | 70 | 1011.9 |
| 20260503020037 | 54 | 25 | 0.0 | 0.0 | 0.00 | 0.01 | 0.01 | 69 | 1011.9 |
| 20260503015537 | 54 | 25 | 0.0 | 0.0 | 0.00 | 0.01 | 0.01 | 68 | 1012.0 |
| 20260503015037 | 54 | 25 | 0.0 | 0.0 | 0.00 | 0.01 | 0.01 | 69 | 1012.0 |
| 20260503014537 | 55 | 25 | 0.0 | 0.0 | 0.00 | 0.01 | 0.01 | 69 | 1012.0 |
| 20260503014037 | 55 | 25 | 0.0 | 0.0 | 0.00 | 0.01 | 0.01 | 68 | 1012.2 |
| 20260503013537 | 55 | 25 | 0.0 | 0.0 | 0.00 | 0.01 | 0.01 | 67 | 1012.2 |
| 20260503013038 | 55 | 25 | 0.0 | 0.0 | 0.00 | 0.01 | 0.01 | 66 | 1012.2 |
| 20260503012537 | 55 | 25 | 0.0 | 0.0 | 0.00 | 0.01 | 0.01 | 66 | 1011.7 |
| 20260503012037 | 55 | 25 | 0.0 | 0.0 | 0.00 | 0.01 | 0.01 | 66 | 1011.7 |
| 20260503011537 | 55 | 25 | 0.0 | 0.0 | 0.00 | 0.01 | 0.01 | 66 | 1011.7 |
| 20260503011037 | 55 | 25 | 0.0 | 0.0 | 0.00 | 0.01 | 0.01 | 66 | 1011.7 |
| 20260503010537 | 55 | 25 | 0.0 | 0.0 | 0.00 | 0.01 | 0.01 | 65 | 1011.7 |
| 20260503010037 | 55 | 25 | 0.0 | 0.0 | 0.00 | 0.01 | 0.01 | 65 | 1011.7 |
| 20260503005537 | 55 | 25 | 0.0 | 0.0 | 0.00 | 0.01 | 0.01 | 65 | 1011.7 |
| 20260503005037 | 56 | 25 | 0.0 | 0.0 | 0.00 | 0.01 | 0.01 | 64 | 1011.7 |
| 20260503004037 | 56 | 25 | 0.0 | 0.0 | 0.00 | 0.01 | 0.01 | 62 | 1011.4 |
| 20260503003037 | 56 | 25 | 0.0 | 0.0 | 0.00 | 0.01 | 0.01 | 61 | 1011.4 |
| 20260503002537 | 57 | 25 | 0.0 | 0.0 | 0.00 | 0.01 | 0.01 | 60 | 1011.2 |
| 20260503002037 | 57 | 25 | 0.0 | 0.0 | 0.00 | 0.01 | 0.01 | 60 | 1011.2 |
| 20260503001537 | 57 | 25 | 0.0 | 0.0 | 0.00 | 0.01 | 0.01 | 59 | 1011.2 |
| 20260503000536 | 57 | 25 | 0.0 | 5.2 | 0.00 | 0.01 | 0.01 | 58 | 1011.2 |
| 20260503000037 | 57 | 25 | 2.6 | 5.2 | 0.00 | 0.01 | 0.01 | 57 | 1011.2 |